星链-30059 (STARLINK-30059 )

导读 | 星芒AI

STARLINK-30059 是 SpaceX Starlink 卫星互联网项目中的一颗低轨卫星,属于第 6 批次部署的星链卫星之一。该卫星于 2022 年发射,运行在约 550 公里的近地轨道上,旨在为全球用户提供高速互联网服务。Starlink 项目通过部署数千颗卫星,构建覆盖全球的宽带网络,特别服务于偏远和网络基础设施薄弱的地区。STARLINK-30059 采用先进的通信技术,支持高频段数据传输,并具备自动避障功能,以确保运行安全和系统稳定性。

基本信息
目录编号:
55714
目录名称:
STARLINK-30059
国际标识:
2023-026V
轨道中心:
EARTH
卫星名称:
星链-30059
卫星全名:
星链-30059 (STARLINK-30059 )
卫星状态:
已陨落 最后检测时间 2023-09-23
发射日期:
2023-02-27 UTC
国别 :
美国 (US)
星等 :
--
轨道信息
数据来源 国际轨道数据
星历时间: 2023-09-24T15:16:26+0800
轨道信息已过期769天
半长轴: 6601.019km
偏心率: 0.001651
轨道倾角: 42.990°
近地点辐角 261.770°
升交点赤经 109.196°
平近点角 98.131°
近地点: 211.985km
远地点: 233.783km
周期: 88.956分钟
每日圈数: 16.187745
详细信息
固有亮度:
5
最大亮度:
0.4
卫星平台:
Starlink v2.0 mini
覆盖范围:
全球
运营商:
太空探索技术公司
运营商所在国:
美国
制造商(研发单位):
太空探索技术公司
制造商所在国:
美国
使用方式:
暂无
卫星简介
星链(Starlink)计划是由太空探索技术公司(SpaceX)提出的一个巨型低轨卫星互联网星座项目,计划在2019年至2024年间在太空搭建由约1.2万颗卫星组成的“星链”网络,其中1584颗将部署在地球上空550千米处的近地轨道,并从2020年开始工作。该卫星已陨落。